User: anonymous   Login
Location: Hopewell Observatory
(38.8698°N, 77.6988°W)
Time: 15:50:41
(UTC-04:00)
Language:

Cosmos 1515 - Orbit

View from above orbital plane
View from above orbital plane
View from above satellite
View from above satellite

Ground track
Ground track

The orbit data is extracted from the following two-line orbital elements,

1 14551U 83122A   19293.50305021  .00000512  00000-0  23587-4 0  9999
2 14551  82.5012  47.8469 0006802 190.6182 255.1560 15.17989040699559
Epoch (UTC): 20 October 2019 12:04:23
Eccentricity: 0.0006802
inclination: 82.5012°
perigee height: 507 km
apogee height: 516 km
right ascension of ascending node: 47.8469°
argument of perigee: 190.6182°
revolutions per day: 15.17989040
mean anomaly at epoch: 255.1560°
orbit number at epoch: 69955

The dashed part of the orbit path shows where the satellite is in the earth's shadow,  

DLR